Location: Belfast
(54.5830°N, 5.9330°W)
Time: 11:18:42
(UTC+01:00)

ISS - Visible Passes

Search period start: 22 July 2018 00:00
Search period end: 01 August 2018 00:00
Orbit: 402 x 408 km, 51.6° (Epoch: 22 July)

Date Brightness Start Highest point End Pass type
(mag) Time Alt. Az. Time Alt. Az. Time Alt. Az.
22 Jul -3.7 01:05:11 10° WSW 01:08:23 51° S 01:11:36 10° ESE visible
22 Jul -3.1 02:41:35 10° W 02:44:34 32° SSW 02:47:32 10° SE visible
22 Jul -1.7 04:19:36 10° SW 04:20:19 11° SW 04:21:02 10° SSW visible
22 Jul -2.7 22:37:28 10° SSW 22:40:14 25° SSE 22:43:02 10° E visible
23 Jul -3.7 00:13:09 10° WSW 00:16:20 49° S 00:19:33 10° E visible
23 Jul -3.4 01:49:27 10° W 01:52:34 39° SSW 01:53:22 33° SSE visible
23 Jul -3.5 23:21:09 10° WSW 23:24:17 43° S 23:27:27 10° E visible
24 Jul -3.6 00:57:21 10° W 01:00:32 46° S 01:01:45 30° SE visible
24 Jul -1.5 02:33:58 10° W 02:34:20 12° WSW 02:34:20 12° WSW visible
24 Jul -3.2 22:29:13 10° SW 22:32:15 36° SSE 22:35:19 10° E visible
25 Jul -3.7 00:05:15 10° W 00:08:28 50° S 00:10:47 17° ESE visible
25 Jul -2.3 01:41:42 10° W 01:43:24 22° WSW 01:43:24 22° WSW visible
25 Jul -3.6 23:13:10 10° WSW 23:16:22 50° S 23:19:35 10° E visible
26 Jul -3.3 00:49:31 10° W 00:52:34 37° SSW 00:52:38 37° SSW visible
26 Jul -3.5 22:21:07 10° WSW 22:24:17 46° S 22:27:27 10° E visible
26 Jul -3.5 23:57:22 10° W 00:00:31 44° S 00:01:57 26° SE visible
27 Jul -1.4 01:34:04 10° WSW 01:34:35 13° WSW 01:34:35 13° WSW visible
27 Jul -3.6 23:05:13 10° W 23:08:24 49° S 23:11:20 12° ESE visible
28 Jul -2.5 00:41:43 10° W 00:43:57 25° SW 00:43:57 25° SW visible
28 Jul -3.5 22:13:05 10° WSW 22:16:17 51° S 22:19:30 10° ESE visible
28 Jul -3.0 23:49:28 10° W 23:52:28 34° SSW 23:53:21 28° SSE visible
29 Jul -3.3 22:57:15 10° W 23:00:22 41° SSW 23:02:47 15° SE visible
30 Jul -1.7 00:34:06 10° WSW 00:35:25 15° SW 00:35:25 15° SW visible
30 Jul -2.5 23:41:37 10° W 23:44:19 23° SSW 23:44:52 22° S visible
31 Jul -2.8 22:49:18 10° W 22:52:15 31° SSW 22:54:20 16° SE visible
